Oelwein, IA

8:36 PM CST on November 21, 2017 (GMT -0600)
Oelwein Municipal

Weather History for KOLZ - October, 2012

Change the Weather History Date:

Friday, October 19, 2012

  Actual Average Record
Temperature  
Mean Temperature 42 °F -  
Max Temperature 48 °F 57 °F 82 °F (2000)
Min Temperature 35 °F 34 °F 13 °F (1972)
Degree Days  
Heating Degree Days 24    
Moisture  
Dew Point 39 °F    
Average Humidity 90    
Maximum Humidity 100    
Minimum Humidity 66    
Precipitation  
Precipitation 0.08 in - - ()
Sea Level Pressure  
Sea Level Pressure 29.55 in    
Wind  
Wind Speed 5 mph (NW)    
Max Wind Speed 10 mph    
Max Gust Speed -    
Visibility 7 miles    
Events Fog , Rain , Snow    
Averages and records for this station are not official NWS values.
T = Trace of Precipitation, MM = Missing Value Source: NWS Daily Summary

Daily Weather History Graph

Daily Weather History Graph

Search for Another Location

Airport or City:

Trip Planner

Search our weather history database for the weather conditions in past years. The results will help you decide how hot, cold, wet, or windy it might be!

Date:

Astronomy

Oct. 19, 2012 Rise Set
Actual Time 7:26 AM CDT 6:18 PM CDT
Civil Twilight 6:57 AM CDT 6:47 PM CDT
Nautical Twilight 6:24 AM CDT 7:19 PM CDT
Astronomical Twilight 5:52 AM CDT 7:52 PM CDT
Moon 12:14 PM CDT (10/19) 9:52 PM CDT (10/19)
Length of Visible Light 11h 49m
Length of Day
10h 51m
Waxing Crescent, 24% of the Moon is Illuminated
Oct 19
Waxing Crescent
Oct 21
First Quarter
Oct 29
Full
Nov 6
Last Quarter
Nov 13
New

Hourly Weather History & Observations

Time (CDT) Temp. Windchill Dew Point Humidity Pressure Visibility Wind Dir Wind Speed Gust Speed Precip Events Conditions
12:13 AM 42.8 °F 41.1 °F 39.2 °F 87% 29.36 in 10.0 mi NNW 3.5 mph - N/A   Clear
12:33 AM 42.8 °F 40.1 °F 39.2 °F 87% 29.37 in 10.0 mi NNW 4.6 mph - N/A   Clear
12:53 AM 41.0 °F 39.0 °F 39.2 °F 93% 29.37 in 10.0 mi NNW 3.5 mph - N/A   Clear
1:13 AM 41.0 °F 37.1 °F 39.2 °F 93% 29.38 in 10.0 mi NNW 5.8 mph - N/A   Clear
1:15 AM 41.0 °F 38.0 °F 37.4 °F 87% 29.38 in 10.0 mi NNW 4.6 mph - N/A   Clear
1:33 AM 39.2 °F 35.9 °F 37.4 °F 93% 29.38 in 7.0 mi NW 4.6 mph - N/A   Clear
1:53 AM 39.2 °F 37.0 °F 37.4 °F 93% 29.39 in 7.0 mi NW 3.5 mph - 0.01 in   Clear
1:55 AM 37.4 °F 34.9 °F 35.6 °F 93% 29.39 in 5.0 mi NW 3.5 mph - 0.01 in   Clear
2:13 AM 37.4 °F 33.8 °F 35.6 °F 93% 29.39 in 2.0 mi NW 4.6 mph - N/A   Scattered Clouds
2:15 AM 35.6 °F 31.7 °F 35.6 °F 100% 29.39 in 1.5 mi NW 4.6 mph - N/A   Mist
2:33 AM 37.4 °F 33.8 °F 35.6 °F 93% 29.40 in 0.8 mi NW 4.6 mph - N/A   Mist
2:35 AM 35.6 °F 30.7 °F 33.8 °F 93% 29.40 in 1.0 mi NW 5.8 mph - N/A   Mist
2:53 AM 37.4 °F 32.8 °F 37.4 °F 100% 29.40 in 1.2 mi NNW 5.8 mph - N/A   Mostly Cloudy
2:55 AM 37.4 °F 32.8 °F 35.6 °F 93% 29.40 in 1.0 mi NNW 5.8 mph - N/A   Overcast
3:13 AM 37.4 °F 33.8 °F 35.6 °F 93% 29.41 in 1.0 mi NNW 4.6 mph - N/A   Overcast
3:15 AM 35.6 °F 30.7 °F 35.6 °F 100% 29.41 in 1.2 mi NNW 5.8 mph - N/A   Mostly Cloudy
3:53 AM 37.4 °F 32.8 °F 37.4 °F 100% 29.42 in 0.2 mi NNW 5.8 mph - N/A Snow Snow
3:55 AM 37.4 °F 32.8 °F 35.6 °F 93% 29.42 in 0.2 mi NW 5.8 mph - N/A Snow Snow
4:13 AM 37.4 °F 32.8 °F 37.4 °F 100% 29.43 in 0.5 mi NNW 5.8 mph - N/A Fog Fog
4:15 AM 37.4 °F 33.8 °F 35.6 °F 93% 29.43 in 0.5 mi NW 4.6 mph - N/A Fog Fog
4:35 AM 37.4 °F 32.8 °F 35.6 °F 93% 29.43 in 1.8 mi NW 5.8 mph - N/A   Overcast
4:53 AM 39.2 °F 35.9 °F 37.4 °F 93% 29.44 in 7.0 mi NW 4.6 mph - N/A   Overcast
4:55 AM 37.4 °F 33.8 °F 35.6 °F 93% 29.44 in 7.0 mi NW 4.6 mph - N/A   Overcast
5:13 AM 39.2 °F 34.2 °F 37.4 °F 93% 29.45 in 10.0 mi NW 6.9 mph - N/A   Mostly Cloudy
5:15 AM 37.4 °F 32.1 °F 35.6 °F 93% 29.45 in 10.0 mi NW 6.9 mph - N/A   Mostly Cloudy
5:33 AM 39.2 °F 35.9 °F 37.4 °F 93% 29.45 in 10.0 mi NW 4.6 mph - N/A   Scattered Clouds
5:35 AM 37.4 °F 33.8 °F 35.6 °F 93% 29.45 in 10.0 mi NW 4.6 mph - N/A   Scattered Clouds
5:53 AM 37.4 °F 34.9 °F 35.6 °F 93% 29.46 in 10.0 mi NNW 3.5 mph - N/A   Clear
5:55 AM 37.4 °F 34.9 °F 35.6 °F 93% 29.46 in 10.0 mi NNW 3.5 mph - N/A   Clear
6:13 AM 39.2 °F 37.0 °F 37.4 °F 93% 29.46 in 10.0 mi NNW 3.5 mph - N/A   Clear
6:15 AM 37.4 °F 33.8 °F 35.6 °F 93% 29.46 in 10.0 mi NNW 4.6 mph - N/A   Clear
6:33 AM 39.2 °F 35.0 °F 37.4 °F 93% 29.48 in 10.0 mi NW 5.8 mph - N/A   Clear
6:35 AM 37.4 °F 32.1 °F 37.4 °F 100% 29.48 in 10.0 mi NW 6.9 mph - N/A   Clear
6:53 AM 39.2 °F 37.0 °F 37.4 °F 93% 29.47 in 10.0 mi NNW 3.5 mph - N/A   Clear
6:55 AM 39.2 °F 37.0 °F 37.4 °F 93% 29.47 in 10.0 mi NNW 3.5 mph - N/A   Clear
7:13 AM 39.2 °F 35.0 °F 39.2 °F 100% 29.48 in 10.0 mi NNW 5.8 mph - N/A   Clear
7:15 AM 41.0 °F 36.4 °F 37.4 °F 87% 29.48 in 10.0 mi North 6.9 mph - N/A   Clear
7:33 AM 41.0 °F 38.0 °F 39.2 °F 93% 29.49 in 10.0 mi NW 4.6 mph - N/A   Clear
7:35 AM 41.0 °F 37.1 °F 37.4 °F 87% 29.49 in 10.0 mi NW 5.8 mph - N/A   Clear
7:53 AM 41.0 °F 38.0 °F 39.2 °F 93% 29.50 in 10.0 mi NNW 4.6 mph - N/A   Clear
7:55 AM 41.0 °F 38.0 °F 37.4 °F 87% 29.50 in 10.0 mi NW 4.6 mph - N/A   Clear
8:13 AM 42.8 °F 38.6 °F 39.2 °F 87% 29.52 in 10.0 mi NW 6.9 mph - N/A   Clear
8:15 AM 41.0 °F 36.4 °F 39.2 °F 93% 29.52 in 10.0 mi NW 6.9 mph - N/A   Clear
8:53 AM 42.8 °F 38.6 °F 41.0 °F 93% 29.53 in 10.0 mi NW 6.9 mph - N/A   Clear
8:55 AM 42.8 °F 38.6 °F 41.0 °F 93% 29.53 in 10.0 mi NW 6.9 mph - N/A   Clear
9:13 AM 44.6 °F 39.7 °F 41.0 °F 87% 29.53 in 10.0 mi North 9.2 mph - N/A   Clear
9:15 AM 44.6 °F 39.7 °F 41.0 °F 87% 29.53 in 10.0 mi North 9.2 mph - N/A   Clear
9:33 AM 46.4 °F 41.5 °F 41.0 °F 81% 29.54 in 10.0 mi North 10.4 mph - N/A   Scattered Clouds
9:35 AM 44.6 °F 39.2 °F 41.0 °F 87% 29.54 in 10.0 mi North 10.4 mph - N/A   Scattered Clouds
9:53 AM 46.4 °F 42.4 °F 39.2 °F 76% 29.54 in 10.0 mi North 8.1 mph - N/A   Scattered Clouds
9:55 AM 44.6 °F 39.2 °F 39.2 °F 81% 29.54 in 10.0 mi North 10.4 mph - N/A   Scattered Clouds
10:13 AM 46.4 °F 42.4 °F 39.2 °F 76% 29.54 in 10.0 mi North 8.1 mph - N/A   Clear
10:15 AM 46.4 °F 41.9 °F 41.0 °F 81% 29.54 in 10.0 mi North 9.2 mph - N/A   Scattered Clouds
10:35 AM 46.4 °F 41.9 °F 41.0 °F 81% 29.55 in 10.0 mi North 9.2 mph - N/A   Clear
10:53 AM 48.2 °F - 39.2 °F 71% 29.55 in 10.0 mi North 8.1 mph - N/A   Clear
10:55 AM 46.4 °F 41.9 °F 39.2 °F 76% 29.56 in 10.0 mi NNW 9.2 mph - N/A   Clear
11:13 AM 48.2 °F - 39.2 °F 71% 29.57 in 10.0 mi NNW 9.2 mph - N/A   Clear
11:15 AM 48.2 °F - 39.2 °F 71% 29.57 in 10.0 mi NNW 8.1 mph - N/A   Clear
11:33 AM 48.2 °F - 39.2 °F 71% 29.57 in 10.0 mi NNW 10.4 mph - N/A   Clear
11:35 AM 48.2 °F - 37.4 °F 66% 29.57 in 10.0 mi NNW 8.1 mph - N/A   Clear
11:53 AM 48.2 °F - 39.2 °F 71% 29.58 in 10.0 mi NNW 8.1 mph - N/A   Clear
11:55 AM 46.4 °F 42.9 °F 37.4 °F 71% 29.58 in 10.0 mi NW 6.9 mph - N/A   Clear
12:15 PM 48.2 °F - 37.4 °F 66% 29.58 in 10.0 mi NNW 5.8 mph - N/A   Clear
12:32 PM 48.2 °F - 42.8 °F 82% 29.58 in 10.0 mi West 10.4 mph - N/A   Clear
12:35 PM 46.4 °F 41.5 °F 41.0 °F 81% 29.58 in 10.0 mi West 10.4 mph - N/A Rain Light Rain
12:52 PM 46.4 °F 42.4 °F 44.6 °F 93% 29.58 in 4.0 mi WNW 8.1 mph - N/A Rain Light Rain
12:55 PM 46.4 °F 41.9 °F 42.8 °F 87% 29.58 in 4.0 mi WNW 9.2 mph - N/A Rain Light Rain
1:12 PM 46.4 °F 42.4 °F 44.6 °F 93% 29.58 in 7.0 mi WNW 8.1 mph - N/A Rain Light Rain
1:15 PM 46.4 °F 42.4 °F 42.8 °F 87% 29.58 in 7.0 mi WNW 8.1 mph - N/A Rain Light Rain
1:32 PM 46.4 °F 41.9 °F 44.6 °F 93% 29.58 in 7.0 mi WNW 9.2 mph - 0.01 in Rain Rain
1:35 PM 46.4 °F 41.5 °F 42.8 °F 87% 29.58 in 7.0 mi WNW 10.4 mph - 0.01 in Rain Light Rain
2:12 PM 46.4 °F 41.9 °F 44.6 °F 93% 29.58 in 5.0 mi WNW 9.2 mph - 0.01 in Rain Light Rain
2:15 PM 46.4 °F 42.9 °F 42.8 °F 87% 29.58 in 5.0 mi WNW 6.9 mph - 0.01 in Rain Light Rain
2:32 PM 46.4 °F 42.4 °F 44.6 °F 93% 29.59 in 7.0 mi West 8.1 mph - 0.01 in Rain Rain
2:35 PM 46.4 °F 42.4 °F 42.8 °F 87% 29.59 in 7.0 mi West 8.1 mph - 0.01 in Rain Light Rain
2:52 PM 46.4 °F 42.9 °F 44.6 °F 93% 29.59 in 4.0 mi WNW 6.9 mph - 0.03 in Rain Light Rain
2:55 PM 46.4 °F 43.5 °F 42.8 °F 87% 29.59 in 5.0 mi WNW 5.8 mph - 0.03 in Rain Light Rain
3:12 PM 46.4 °F 44.3 °F 42.8 °F 87% 29.59 in 7.0 mi WNW 4.6 mph - 0.01 in Rain Light Rain
3:15 PM 46.4 °F 43.5 °F 42.8 °F 87% 29.59 in 7.0 mi WNW 5.8 mph - 0.01 in Rain Light Rain
3:32 PM 46.4 °F 43.5 °F 44.6 °F 93% 29.59 in 3.0 mi West 5.8 mph - 0.01 in Rain Light Rain
4:12 PM 46.4 °F 43.5 °F 44.6 °F 93% 29.60 in 10.0 mi WNW 5.8 mph - N/A   Scattered Clouds
4:15 PM 46.4 °F 44.3 °F 42.8 °F 87% 29.60 in 10.0 mi WNW 4.6 mph - N/A Rain Light Rain
4:32 PM 46.4 °F 45.2 °F 44.6 °F 93% 29.61 in 3.0 mi North 3.5 mph - 0.01 in Rain Rain
4:35 PM 44.6 °F - 42.8 °F 93% 29.61 in 3.0 mi Calm Calm - 0.01 in Rain Rain
4:52 PM 46.4 °F - 44.6 °F 93% 29.61 in 4.0 mi Calm Calm - 0.02 in   Drizzle
4:55 PM 44.6 °F 43.1 °F 42.8 °F 93% 29.61 in 5.0 mi North 3.5 mph - 0.02 in   Drizzle
5:12 PM 46.4 °F 43.5 °F 44.6 °F 93% 29.62 in 10.0 mi North 5.8 mph - N/A   Scattered Clouds
5:15 PM 44.6 °F 42.2 °F 42.8 °F 93% 29.62 in 10.0 mi North 4.6 mph - N/A   Scattered Clouds
5:52 PM 46.4 °F 44.3 °F 42.8 °F 87% 29.63 in 10.0 mi North 4.6 mph - N/A   Clear
5:55 PM 46.4 °F 44.3 °F 42.8 °F 87% 29.63 in 10.0 mi North 4.6 mph - N/A   Clear
6:12 PM 46.4 °F 45.2 °F 42.8 °F 87% 29.64 in 10.0 mi North 3.5 mph - N/A   Clear
6:15 PM 44.6 °F 43.1 °F 42.8 °F 93% 29.64 in 10.0 mi North 3.5 mph - N/A   Clear
6:52 PM 46.4 °F - 42.8 °F 87% 29.66 in 10.0 mi Calm Calm - N/A   Clear
6:55 PM 44.6 °F - 42.8 °F 93% 29.66 in 10.0 mi Calm Calm - N/A   Clear
7:13 PM 44.6 °F - 42.8 °F 93% 29.67 in 10.0 mi Calm Calm - N/A   Clear
7:15 PM 44.6 °F - 42.8 °F 93% 29.67 in 10.0 mi Calm Calm - N/A   Clear
7:35 PM 44.6 °F - 42.8 °F 93% 29.68 in 10.0 mi Calm Calm - N/A   Clear
7:53 PM 44.6 °F - 42.8 °F 93% 29.68 in 10.0 mi Calm Calm - N/A   Clear
7:55 PM 44.6 °F - 42.8 °F 93% 29.68 in 10.0 mi Calm Calm - N/A   Clear
8:13 PM 44.6 °F 43.1 °F 42.8 °F 93% 29.69 in 7.0 mi NW 3.5 mph - N/A   Clear
8:15 PM 42.8 °F 40.1 °F 41.0 °F 93% 29.69 in 7.0 mi NW 4.6 mph - N/A   Clear
8:33 PM 41.0 °F 38.0 °F 39.2 °F 93% 29.69 in 7.0 mi NW 4.6 mph - N/A   Clear
8:35 PM 41.0 °F 38.0 °F 37.4 °F 87% 29.69 in 7.0 mi NW 4.6 mph - N/A   Clear
9:13 PM 39.2 °F 35.9 °F 37.4 °F 93% 29.70 in 4.0 mi West 4.6 mph - N/A   Clear
9:15 PM 37.4 °F 33.8 °F 35.6 °F 93% 29.71 in 4.0 mi WNW 4.6 mph - N/A   Clear
9:33 PM 37.4 °F 32.8 °F 37.4 °F 100% 29.71 in 1.0 mi WNW 5.8 mph - N/A   Mist
9:53 PM 37.4 °F 33.8 °F 37.4 °F 100% 29.71 in 1.0 mi NW 4.6 mph - N/A   Mist
10:13 PM 37.4 °F 32.8 °F 35.6 °F 93% 29.72 in 0.5 mi NW 5.8 mph - N/A Fog Fog
10:33 PM 37.4 °F 34.9 °F 35.6 °F 93% 29.72 in 1.2 mi NNW 3.5 mph - N/A   Scattered Clouds
10:53 PM 37.4 °F 32.8 °F 35.6 °F 93% 29.72 in 0.5 mi NW 5.8 mph - N/A Fog Fog
11:13 PM 35.6 °F 32.8 °F 33.8 °F 93% 29.72 in 0.5 mi NNW 3.5 mph - N/A Fog Fog
11:33 PM 37.4 °F 33.8 °F 35.6 °F 93% 29.72 in 4.0 mi NNW 4.6 mph - N/A   Scattered Clouds
11:35 PM 37.4 °F 33.8 °F 35.6 °F 93% 29.72 in 4.0 mi NNW 4.6 mph - N/A   Scattered Clouds
11:53 PM 35.6 °F 31.7 °F 33.8 °F 93% 29.73 in 2.5 mi WNW 4.6 mph - N/A   Clear